• Join FlightAware (Why Join?)
  • Login
  • US Flag 
08:58PM EDT


 

Airport Tracker/Info


-or-


 

Live Flight TrackerFlight Track Log ✈ FSR411 ✈ 01-Jan-2013 ✈ KPUB - KSJC

Flight Track Log - Related Links

Times and Time Zones

All times are in EST time to prevent confusion due to time zone crossing. See the FSR411 flight status page for this flight to view local times or setup timezone preferences in your user account.

Time Position Orientation Groundspeed Altitude Reporting Facility
EST Latitude Longitude Course Direction KTS MPH feet Rate Location/Type
01:06PM 38.2833 -104.5500 270° West 197 227 6,400  Level Denver TRACON
01:07PM 38.2833 -104.6167 270° West 256 295 8,000 2,820 Climbing Denver TRACON
01:08PM 38.2939 -104.7278 277° West 268 308 11,900 3,420 Climbing Denver Center
01:09PM 38.2986 -104.8356 273° West 305 351 15,500 3,840 Climbing Denver Center
01:10PM 38.3022 -104.9517 272° West 332 382 19,900 4,440 Climbing Denver Center
01:11PM 38.3058 -105.0792 272° West 328 377 24,700 3,540 Climbing Denver Center
01:12PM 38.3089 -105.1883 272° West 324 373 27,300 2,460 Climbing Denver Center
01:13PM 38.3133 -105.3197 273° West 331 381 29,800 1,800 Climbing Denver Center
01:14PM 38.3169 -105.4406 272° West 349 402 31,100 1,440 Climbing Denver Center
01:15PM 38.3208 -105.5911 272° West 375 432 32,800 1,500 Climbing Denver Center
01:16PM 38.3239 -105.7222 272° West 384 442 34,200 1,200 Climbing Denver Center
01:17PM 38.3275 -105.8792 272° West 394 453 35,300 1,020 Climbing Denver Center
01:18PM 38.3308 -106.0172 272° West 403 464 36,400 1,740 Climbing Denver Center
01:19PM 38.3339 -106.1744 271° West 401 461 38,900 1,680 Climbing Denver Center
01:21PM 38.3367 -106.3067 272° West 356 410 40,000 480 Climbing Denver Center
01:22PM 38.3392 -106.4331 271° West 367 422 40,000  Level Denver Center
01:23PM 38.3414 -106.5914 271° West 396 456 40,000  Level Denver Center
01:24PM 38.3439 -106.7325 271° West 415 478 40,000  Level Denver Center
01:25PM 38.3461 -106.8747 271° West 419 482 40,000  Level Denver Center
01:26PM 38.3483 -107.0419 271° West 422 486 40,000  Level Denver Center
01:27PM 38.3503 -107.1858 271° West 423 487 40,000  Level Denver Center
01:28PM 38.3519 -107.3519 271° West 421 484 40,000  Level Denver Center
01:29PM 38.3531 -107.4956 271° West 423 487 40,000  Level Denver Center
01:30PM 38.3547 -107.6658 271° West 427 491 40,000  Level Denver Center
01:31PM 38.3550 -107.8100 270° West 426 490 40,000  Level Denver Center
01:32PM 38.3569 -107.9764 271° West 423 487 40,000  Level Denver Center
01:33PM 38.3583 -108.1200 271° West 423 487 40,000  Level Denver Center
01:34PM 38.3592 -108.2892 270° West 425 489 40,000  Level Denver Center
01:35PM 38.3594 -108.4336 270° West 425 489 40,000  Level Denver Center
01:36PM 38.3592 -108.5778 270° West 425 489 40,000  Level Denver Center
01:37PM 38.3589 -108.7483 270° West 428 493 40,000  Level Denver Center
01:38PM 38.3597 -108.8931 270° West 428 493 40,000  Level Denver Center
01:39PM 38.3581 -109.0608 269° West 424 488 40,000  Level Denver Center
01:40PM 38.3578 -109.2056 270° West 426 490 40,000  Level Denver Center
01:41PM 38.3564 -109.3744 269° West 426 490 40,000  Level Denver Center
01:42PM 38.3553 -109.5414 270° West 423 487 40,000  Level Denver Center
01:43PM 38.3542 -109.7089 270° West 423 487 40,000  Level Denver Center
01:44PM 38.3528 -109.8517 269° West 422 486 40,000  Level Denver Center
01:46PM 38.3506 -110.0189 269° West 422 486 40,000  Level Denver Center
01:47PM 38.3486 -110.1633 269° West 425 489 40,000  Level Denver Center
01:48PM 38.3458 -110.3319 269° West 425 489 40,000  Level Denver Center
01:49PM 38.3450 -110.4769 270° West 427 491 40,000  Level Denver Center
01:50PM 38.3411 -110.6447 268° West 425 489 40,000  Level Denver Center
01:51PM 38.3389 -110.7897 269° West 427 491 40,000  Level Denver Center
01:51PM 38.3400 -110.8400 272° West 427 491 40,000  Level Salt Lake Center
01:52PM 38.3356 -110.9572 267° West 424 488 40,000  Level Denver Center
01:52PM 38.3369 -110.9889 273° West 424 488 40,000  Level Salt Lake Center
01:53PM 38.3342 -111.1392 269° West 426 490 40,000  Level Salt Lake Center
01:54PM 38.3303 -111.2900 268° West 427 491 40,000  Level Salt Lake Center
01:55PM 38.3272 -111.4403 269° West 426 490 40,000  Level Salt Lake Center
01:56PM 38.3225 -111.6217 268° West 428 493 40,000  Level Salt Lake Center
01:57PM 38.3181 -111.7714 268° West 427 491 40,000  Level Salt Lake Center
01:58PM 38.3147 -111.9233 268° West 429 494 40,000  Level Salt Lake Center
01:59PM 38.3094 -112.0736 267° West 429 494 40,000  Level Salt Lake Center
02:00PM 38.3050 -112.2242 268° West 428 493 40,000  Level Salt Lake Center
02:01PM 38.3006 -112.3744 268° West 428 493 40,000  Level Salt Lake Center
02:02PM 38.2942 -112.5558 267° West 429 494 40,000  Level Salt Lake Center
02:03PM 38.2892 -112.7078 268° West 431 496 40,000  Level Salt Lake Center
02:04PM 38.2844 -112.8614 268° West 435 501 40,000  Level Salt Lake Center
02:05PM 38.2786 -113.0131 267° West 434 499 40,000  Level Salt Lake Center
02:06PM 38.2725 -113.1669 267° West 437 503 40,000  Level Salt Lake Center
02:07PM 38.2653 -113.3511 267° West 438 504 40,000  Level Salt Lake Center
02:09PM 38.2586 -113.5053 267° West 439 505 40,000  Level Salt Lake Center
02:10PM 38.2528 -113.6600 267° West 439 505 40,000  Level Salt Lake Center
02:11PM 38.2453 -113.8153 267° West 441 507 40,000  Level Salt Lake Center
02:12PM 38.2386 -113.9708 267° West 443 510 40,000  Level Salt Lake Center
02:13PM 38.2314 -114.1275 267° West 444 511 40,000  Level Salt Lake Center
02:14PM 38.2222 -114.3169 267° West 447 514 40,000  Level Salt Lake Center
02:15PM 38.2144 -114.4719 266° West 444 511 40,000  Level Salt Lake Center
02:16PM 38.2064 -114.6292 266° West 446 513 40,000  Level Salt Lake Center
02:17PM 38.1983 -114.7869 266° West 448 516 40,000  Level Salt Lake Center
02:18PM 38.1892 -114.9442 266° West 448 516 40,000  Level Salt Lake Center
02:19PM 38.1808 -115.1003 266° West 445 512 40,000  Level Salt Lake Center
02:20PM 38.1708 -115.2881 266° West 446 513 40,000  Level Salt Lake Center
02:21PM 38.1617 -115.4336 265° West 445 512 40,000  Level Salt Lake Center
02:22PM 38.1531 -115.5903 266° West 445 512 40,000  Level Salt Lake Center
02:23PM 38.1442 -115.7472 266° West 446 513 40,000  Level Salt Lake Center
02:24PM 38.1336 -115.9044 265° West 446 513 40,000  Level Salt Lake Center
02:25PM 38.1214 -116.0931 265° West 447 514 40,000  Level Salt Lake Center
02:26PM 38.1117 -116.2500 266° West 447 514 40,000  Level Salt Lake Center
02:27PM 38.1014 -116.4081 265° West 448 516 40,000  Level Salt Lake Center
02:28PM 38.0908 -116.5664 265° West 449 517 40,000  Level Salt Lake Center
02:29PM 38.0797 -116.7247 265° West 450 518 40,000  Level Salt Lake Center
02:30PM 38.0661 -116.9153 265° West 452 520 40,000  Level Oakland Center
02:31PM 38.0556 -117.0744 265° West 448 516 40,000  Level Oakland Center
02:32PM 38.0458 -117.2056 265° West 449 517 40,000  Level Oakland Center
02:33PM 38.0256 -117.3672 261° West 452 520 40,000  Level Oakland Center
02:34PM 37.9719 -117.5461 249° West 451 519 40,000  Level Oakland Center
02:35PM 37.9281 -117.6944 249° West 449 517 40,000  Level Oakland Center
02:36PM 37.8847 -117.8428 250° West 449 517 40,000  Level Oakland Center
02:37PM 37.8400 -117.9903 249° West 449 517 40,000  Level Oakland Center
02:38PM 37.7972 -118.1372 250° West 446 513 40,000 -840 Level Oakland Center
02:39PM 37.7531 -118.2858 249° West 449 517 38,300 -1,920 Descending Oakland Center
02:40PM 37.7083 -118.4322 249° West 448 516 36,100 -2,220 Descending Oakland Center
02:41PM 37.6633 -118.5881 250° West 467 537 33,800 -2,280 Descending Oakland Center
02:42PM 37.6136 -118.7481 249° West 488 562 31,500 -1,920 Descending Oakland Center
02:43PM 37.5575 -118.9228 248° West 483 556 30,000 -780 Descending Oakland Center
02:44PM 37.5075 -119.0869 249° West 496 571 30,000 -540 Level Oakland Center
02:46PM 37.4553 -119.2603 249° West 532 612 28,900 -1,380 Descending Oakland Center
02:47PM 37.4031 -119.4264 248° West 514 592 27,200 -1,740 Descending Oakland Center
02:48PM 37.3544 -119.5756 248° West 505 581 25,400 -1,980 Descending Oakland Center
02:49PM 37.3028 -119.7419 249° West 483 556 23,200 -2,100 Descending Oakland Center
02:50PM 37.2711 -119.9117 257° West 439 505 21,200 -1,620 Descending Oakland Center
02:51PM 37.2556 -120.0633 263° West 437 503 20,000 -600 Descending Oakland Center
02:52PM 37.2381 -120.2153 262° West 439 505 20,000  Level Oakland Center
02:53PM 37.2208 -120.3669 262° West 438 504 20,000 -240 Level Oakland Center
02:53PM 37.2167 -120.4333 266° West 448 516 19,700 -1,740 Descending Northern Cal TRACON
02:54PM 37.1833 -120.5667 253° West 469 540 17,600 -2,580 Descending Northern Cal TRACON
02:55PM 37.1500 -120.7000 253° West 390 449 14,900 -2,580 Descending Northern Cal TRACON
02:56PM 37.1333 -120.8167 260° West 371 427 12,700 -1,860 Descending Northern Cal TRACON
02:57PM 37.1117 -120.8983 252° West 347 399 11,600 -1,440 Descending Oakland Center
02:58PM 37.0958 -121.0300 261° West 377 434 10,100 -840 Descending Oakland Center
02:59PM 37.0842 -121.1619 264° West 372 428 9,900 -120 Descending Oakland Center
03:00PM 37.0722 -121.2867 263° West 366 421 9,900 -360 Level Oakland Center
03:01PM 37.0608 -121.3981 263° West 341 392 9,200 -1,020 Descending Oakland Center
03:02PM 37.0592 -121.5011 269° West 307 353 7,900 -1,680 Descending Oakland Center
03:03PM 37.1131 -121.5958 306° West 292 336 5,800 -1,500 Descending Oakland Center
03:04PM 37.1475 -121.6803 297° West 273 314 4,900 -720 Descending Oakland Center
03:05PM 37.1883 -121.7458 308° West 254 292 4,400 -900 Descending Oakland Center
03:06PM 37.2375 -121.7983 320° Northwest 241 277 3,100 -1,260 Descending Oakland Center
03:07PM 37.2844 -121.8458 321° Northwest 226 260 1,900 -1,080 Descending Oakland Center
03:08PM 37.3239 -121.8889 319° Northwest 205 236 900 -900 Descending Oakland Center
03:09PM 37.3536 -121.9217 319° Northwest 162 186 100 9,360 Descending Oakland Center
03:10PM 37.3639 -121.9342 316° Northwest 84 97 20,000 9,660 Climbing Oakland Center
03:11PM 37.3619 -121.9375 234° Southwest 46 53 20,000  Level Oakland Center